Find Starlink 35597

NORAD ID: 66493 Int'l Des: 2025-263 Owner: SPXS Country: US Constellation: starlink operational
LEOCIRCULAR

当前视图

正在加载3D地球...

About Starlink 35597

Starlink 35597 (NORAD 66493) is a starlink constellation satellite (v2 mini) launched Nov 15, 2025 by SPXS of US. It operates in LEO, CIRCULAR orbit with a mass of 575.00 kg.

即将过境

Passes for default location (London). Set your location on the main map for personalized predictions.

高度历史

Loading altitude history...

两行轨道根数

1 66493U 25263J 26237.96167925 .00015437 00000-0 56916-3 0 9991
2 66493 42.9996 115.0193 0000308 303.2847 56.7975 15.27588869 44788
Epoch: Aug 25, 2026 • Age: 10 hours

当前状态

高度 482.2 km
远地点 / 近地点 N/A
速度 7.63 km/s
星下点 10.52°N, 168.38°E
发射日期 Nov 15, 2025
运行时间 0.7 years
类型 internet

技术详情

分类 Payload
质量 575.00 kg
干质量 530.00 kg
总质量 575.00 kg
长度 0.30 m
直径 4.10 m
跨度 29.00 m
形状 Box + pan
制造商 SPXS
平台类型 Starlink V2MO
阶段状态 In Orbit
所有者/国家 SPXS/US

Most Searched